EZS735X LFSB-LFMN

Flight info

Callsign EZS735X
Flight time 0h 57m
Altitude 31000
Route MOROK T14 GILIR DCT TUROM DCT MILPA DCT KOGAS DCT MEDAM DCT VEVAR
Aircraft A320/M-SDE3FGHIRWY/LB1

Departure

Time 2026-05-06 14:56
Airport EuroAirport Basel–Mulhouse–Freiburg (LFSB)

Arrival

Time 2026-05-06 15:53
Airport Nice-Côte d'Azur Airport (LFMN)
Time Latitude Longitude Altitude Speed Heading
2026-05-06 14:27 47.59791 7.53172 894 ft 0 kts 65°
2026-05-06 14:45 47.59785 7.53155 894 ft 4 kts 65°
2026-05-06 14:45 47.59777 7.53124 894 ft 4 kts 84°
2026-05-06 14:46 47.59781 7.53087 894 ft 4 kts 125°
2026-05-06 14:46 47.59789 7.53072 894 ft 1 kts 136°
2026-05-06 14:46 47.59790 7.53070 894 ft 0 kts 136°
2026-05-06 14:48 47.59786 7.53076 894 ft 2 kts 138°
2026-05-06 14:48 47.59768 7.53081 894 ft 4 kts 189°
2026-05-06 14:48 47.59736 7.53065 894 ft 6 kts 185°
2026-05-06 14:49 47.59686 7.53047 894 ft 8 kts 215°
2026-05-06 14:49 47.59657 7.52963 894 ft 9 kts 244°
2026-05-06 14:49 47.59635 7.52897 894 ft 5 kts 244°
2026-05-06 14:49 47.59614 7.52833 894 ft 8 kts 239°
2026-05-06 14:50 47.59564 7.52815 894 ft 8 kts 163°
2026-05-06 14:50 47.59511 7.52852 894 ft 9 kts 154°
2026-05-06 14:50 47.59453 7.52892 894 ft 10 kts 155°
2026-05-06 14:50 47.59390 7.52935 894 ft 10 kts 155°
2026-05-06 14:51 47.59322 7.52983 895 ft 11 kts 155°
2026-05-06 14:51 47.59248 7.53034 895 ft 12 kts 155°
2026-05-06 14:51 47.59186 7.53096 894 ft 11 kts 119°
2026-05-06 14:51 47.59177 7.53205 894 ft 11 kts 108°
2026-05-06 14:52 47.59144 7.53295 894 ft 10 kts 88°
2026-05-06 14:52 47.59160 7.53394 894 ft 10 kts 77°
2026-05-06 14:52 47.59175 7.53488 894 ft 9 kts 77°
2026-05-06 14:52 47.59184 7.53547 894 ft 9 kts 77°
2026-05-06 14:53 47.59197 7.53628 894 ft 7 kts 77°
2026-05-06 14:53 47.59208 7.53699 894 ft 9 kts 77°
2026-05-06 14:53 47.59228 7.53818 894 ft 12 kts 76°
2026-05-06 14:53 47.59244 7.53920 893 ft 8 kts 77°
2026-05-06 14:54 47.59231 7.53986 892 ft 6 kts 120°
2026-05-06 14:54 47.59211 7.54036 892 ft 5 kts 121°
2026-05-06 14:54 47.59194 7.54077 893 ft 5 kts 128°
2026-05-06 14:54 47.59166 7.54064 893 ft 5 kts 243°
2026-05-06 14:55 47.59164 7.54047 893 ft 0 kts 258°
2026-05-06 14:55 47.59150 7.53946 893 ft 43 kts 258°
2026-05-06 14:55 47.59016 7.53102 893 ft 123 kts 257°
2026-05-06 14:56 47.58775 7.51634 1300 ft 153 kts 255°
2026-05-06 14:56 47.58534 7.50096 2382 ft 150 kts 256°
2026-05-06 14:56 47.58318 7.48604 2994 ft 158 kts 257°
2026-05-06 14:56 47.58055 7.46905 3327 ft 181 kts 256°
2026-05-06 14:57 47.57706 7.44985 3659 ft 206 kts 252°
2026-05-06 14:57 47.57242 7.42842 4141 ft 231 kts 251°
2026-05-06 14:57 47.56710 7.40483 4763 ft 249 kts 251°
2026-05-06 14:57 47.56153 7.38022 5724 ft 255 kts 251°
2026-05-06 14:58 47.55586 7.35513 6701 ft 259 kts 251°
2026-05-06 14:58 47.55010 7.32958 7647 ft 263 kts 251°
2026-05-06 14:58 47.54427 7.30370 8612 ft 267 kts 251°
2026-05-06 14:58 47.53832 7.27734 9547 ft 272 kts 251°
2026-05-06 14:59 47.53222 7.25035 10229 ft 286 kts 251°
2026-05-06 14:59 47.52588 7.22228 10594 ft 306 kts 251°
2026-05-06 14:59 47.51905 7.19192 11303 ft 314 kts 251°
2026-05-06 14:59 47.51210 7.16101 12131 ft 319 kts 251°
2026-05-06 15:00 47.50504 7.12969 12961 ft 323 kts 250°
2026-05-06 15:00 47.49788 7.09799 13772 ft 327 kts 250°
2026-05-06 15:00 47.49061 7.06589 14482 ft 331 kts 250°
2026-05-06 15:00 47.48324 7.03344 15190 ft 335 kts 250°
2026-05-06 15:01 47.47577 7.00061 15889 ft 339 kts 250°
2026-05-06 15:01 47.46819 6.96739 16577 ft 343 kts 250°
2026-05-06 15:01 47.46053 6.93377 17256 ft 347 kts 249°
2026-05-06 15:01 47.45273 6.89974 17952 ft 351 kts 249°
2026-05-06 15:02 47.44483 6.86538 18577 ft 355 kts 249°
2026-05-06 15:02 47.43686 6.83064 19183 ft 360 kts 249°
2026-05-06 15:02 47.42877 6.79546 19798 ft 364 kts 249°
2026-05-06 15:02 47.42060 6.75991 20402 ft 368 kts 249°
2026-05-06 15:03 47.41244 6.72441 20960 ft 372 kts 249°
2026-05-06 15:03 47.40333 6.68848 21510 ft 375 kts 243°
2026-05-06 15:03 47.39022 6.65520 22040 ft 377 kts 232°
2026-05-06 15:03 47.37301 6.62603 22563 ft 379 kts 221°
2026-05-06 15:04 47.35298 6.60061 23091 ft 382 kts 218°
2026-05-06 15:04 47.33259 6.57523 23616 ft 385 kts 218°
2026-05-06 15:04 47.31207 6.54955 24086 ft 388 kts 219°
2026-05-06 15:04 47.29145 6.52368 24567 ft 390 kts 219°
2026-05-06 15:05 47.27072 6.49765 25037 ft 393 kts 219°
2026-05-06 15:05 47.24989 6.47152 25495 ft 395 kts 219°
2026-05-06 15:05 47.22888 6.44521 25958 ft 397 kts 219°
2026-05-06 15:05 47.20778 6.41887 26404 ft 399 kts 219°
2026-05-06 15:06 47.18650 6.39238 26864 ft 402 kts 219°
2026-05-06 15:06 47.16511 6.36577 27292 ft 404 kts 219°
2026-05-06 15:06 47.14361 6.33901 27732 ft 406 kts 219°
2026-05-06 15:06 47.12198 6.31213 28170 ft 409 kts 219°
2026-05-06 15:07 47.10023 6.28511 28604 ft 411 kts 219°
2026-05-06 15:07 47.07834 6.25795 29016 ft 413 kts 219°
2026-05-06 15:07 47.05634 6.23064 29430 ft 416 kts 219°
2026-05-06 15:07 47.03422 6.20318 29849 ft 418 kts 219°
2026-05-06 15:08 47.01196 6.17558 30198 ft 420 kts 219°
2026-05-06 15:08 46.98959 6.14791 30535 ft 422 kts 219°
2026-05-06 15:08 46.96706 6.12014 30829 ft 424 kts 219°
2026-05-06 15:09 46.92270 6.06570 30920 ft 401 kts 219°
2026-05-06 15:09 46.90168 6.03995 30919 ft 390 kts 219°
2026-05-06 15:09 46.88104 6.01460 30926 ft 386 kts 219°
2026-05-06 15:10 46.83610 5.97289 30928 ft 384 kts 201°
2026-05-06 15:10 46.78394 5.95688 30926 ft 385 kts 187°
2026-05-06 15:11 46.73073 5.94840 30929 ft 385 kts 187°
2026-05-06 15:11 46.67750 5.93986 30929 ft 384 kts 187°
2026-05-06 15:12 46.62434 5.93134 30930 ft 384 kts 188°
2026-05-06 15:12 46.57125 5.92277 30930 ft 384 kts 188°
2026-05-06 15:13 46.51822 5.91420 30931 ft 383 kts 188°
2026-05-06 15:13 46.46467 5.90559 30940 ft 401 kts 188°
2026-05-06 15:13 46.43615 5.90100 30942 ft 413 kts 188°
2026-05-06 15:14 46.40775 5.89647 30942 ft 419 kts 188°
2026-05-06 15:14 46.34964 5.88733 30941 ft 421 kts 186°
2026-05-06 15:14 46.32031 5.88839 30941 ft 424 kts 174°
2026-05-06 15:15 46.29157 5.89901 30945 ft 429 kts 161°
2026-05-06 15:15 46.26497 5.91894 30946 ft 435 kts 149°
2026-05-06 15:15 46.24033 5.94454 30946 ft 436 kts 147°
2026-05-06 15:16 46.19117 5.99604 30946 ft 436 kts 148°
2026-05-06 15:16 46.14197 6.04719 30940 ft 436 kts 148°
2026-05-06 15:17 46.09274 6.09818 30935 ft 435 kts 148°
2026-05-06 15:17 46.04355 6.14907 30933 ft 435 kts 149°
2026-05-06 15:18 45.99436 6.19986 30930 ft 435 kts 149°
2026-05-06 15:18 45.94523 6.25039 30936 ft 434 kts 149°
2026-05-06 15:19 45.89617 6.30080 30935 ft 433 kts 150°
2026-05-06 15:19 45.84746 6.35073 30937 ft 432 kts 150°
2026-05-06 15:20 45.79849 6.40087 30942 ft 432 kts 150°
2026-05-06 15:20 45.75049 6.44993 30943 ft 431 kts 150°
2026-05-06 15:21 45.70169 6.49959 30944 ft 429 kts 151°
2026-05-06 15:21 45.65341 6.54858 30953 ft 428 kts 152°
2026-05-06 15:22 45.60486 6.59778 30952 ft 427 kts 152°
2026-05-06 15:22 45.55642 6.64681 30946 ft 427 kts 152°
2026-05-06 15:23 45.50799 6.69580 30937 ft 426 kts 152°
2026-05-06 15:23 45.45962 6.74449 30936 ft 426 kts 152°
2026-05-06 15:24 45.41129 6.79309 30925 ft 425 kts 152°
2026-05-06 15:24 45.36287 6.84166 30922 ft 425 kts 152°
2026-05-06 15:25 45.31456 6.88994 30906 ft 425 kts 152°
2026-05-06 15:25 45.26460 6.93296 30888 ft 411 kts 166°
2026-05-06 15:26 45.20991 6.94878 30881 ft 398 kts 180°
2026-05-06 15:26 45.15489 6.95725 30871 ft 398 kts 179°
2026-05-06 15:27 45.09965 6.96578 30858 ft 399 kts 180°
2026-05-06 15:27 45.04449 6.97437 30854 ft 399 kts 179°
2026-05-06 15:28 44.98944 6.98309 30846 ft 399 kts 180°
2026-05-06 15:28 44.93432 6.99173 30849 ft 399 kts 180°
2026-05-06 15:29 44.87918 7.00030 30846 ft 399 kts 180°
2026-05-06 15:29 44.82542 7.00862 30837 ft 398 kts 180°
2026-05-06 15:30 44.77068 7.01807 30829 ft 400 kts 178°
2026-05-06 15:30 44.71575 7.03131 30654 ft 403 kts 176°
2026-05-06 15:30 44.68836 7.03842 30269 ft 398 kts 176°
2026-05-06 15:31 44.66117 7.04543 29904 ft 395 kts 176°
2026-05-06 15:31 44.63427 7.05218 29477 ft 391 kts 177°
2026-05-06 15:31 44.60751 7.05869 29050 ft 388 kts 177°
2026-05-06 15:32 44.55443 7.07123 28215 ft 385 kts 178°
2026-05-06 15:32 44.52815 7.07741 27797 ft 382 kts 177°
2026-05-06 15:32 44.50198 7.08357 27334 ft 380 kts 177°
2026-05-06 15:32 44.47599 7.08966 26825 ft 378 kts 178°
2026-05-06 15:33 44.45015 7.09574 26303 ft 374 kts 178°
2026-05-06 15:33 44.42463 7.10181 25793 ft 370 kts 178°
2026-05-06 15:33 44.39939 7.10779 25292 ft 367 kts 178°
2026-05-06 15:33 44.37428 7.11371 24808 ft 365 kts 178°
2026-05-06 15:34 44.34937 7.11960 24326 ft 362 kts 178°
2026-05-06 15:34 44.32454 7.12543 23846 ft 360 kts 178°
2026-05-06 15:34 44.29989 7.13119 23383 ft 358 kts 179°
2026-05-06 15:34 44.29207 7.13303 23199 ft 358 kts 179°
2026-05-06 15:35 44.26753 7.13881 22643 ft 356 kts 178°
2026-05-06 15:35 44.25140 7.14259 22295 ft 355 kts 178°
2026-05-06 15:35 44.22710 7.14832 21795 ft 354 kts 176°
2026-05-06 15:35 44.20312 7.15779 21320 ft 363 kts 166°
2026-05-06 15:36 44.17975 7.17137 20849 ft 364 kts 165°
2026-05-06 15:36 44.15645 7.18506 20406 ft 363 kts 165°
2026-05-06 15:36 44.13332 7.19868 19969 ft 362 kts 164°
2026-05-06 15:36 44.11015 7.21232 19543 ft 361 kts 164°
2026-05-06 15:37 44.08701 7.22594 19143 ft 361 kts 163°
2026-05-06 15:37 44.06394 7.23951 18764 ft 360 kts 163°
2026-05-06 15:37 44.04175 7.25252 18391 ft 359 kts 163°
2026-05-06 15:37 44.01966 7.26543 18011 ft 357 kts 163°
2026-05-06 15:38 43.99668 7.27883 17572 ft 357 kts 163°
2026-05-06 15:38 43.97386 7.29210 17138 ft 355 kts 163°
2026-05-06 15:38 43.95113 7.30531 16708 ft 353 kts 163°
2026-05-06 15:38 43.92857 7.31843 16263 ft 351 kts 162°
2026-05-06 15:39 43.90610 7.33151 15829 ft 349 kts 162°
2026-05-06 15:39 43.88375 7.34455 15409 ft 347 kts 162°
2026-05-06 15:39 43.86149 7.35754 14975 ft 346 kts 162°
2026-05-06 15:39 43.83953 7.37088 14553 ft 346 kts 157°
2026-05-06 15:40 43.81925 7.38893 14138 ft 349 kts 146°
2026-05-06 15:40 43.80179 7.40858 13761 ft 347 kts 144°
2026-05-06 15:40 43.78326 7.42940 13329 ft 346 kts 144°
2026-05-06 15:40 43.76458 7.45026 12869 ft 345 kts 144°
2026-05-06 15:41 43.74598 7.47099 12421 ft 342 kts 144°
2026-05-06 15:41 43.72752 7.49158 11968 ft 340 kts 144°
2026-05-06 15:41 43.70950 7.51167 11518 ft 337 kts 145°
2026-05-06 15:41 43.69191 7.53309 11057 ft 338 kts 136°
2026-05-06 15:42 43.67777 7.55895 10426 ft 337 kts 123°
2026-05-06 15:42 43.66821 7.58818 9774 ft 332 kts 112°
2026-05-06 15:42 43.66115 7.61637 9106 ft 325 kts 112°
2026-05-06 15:42 43.65374 7.64553 8409 ft 319 kts 112°
2026-05-06 15:43 43.64640 7.67418 7723 ft 313 kts 112°
2026-05-06 15:43 43.63858 7.70145 7064 ft 305 kts 122°
2026-05-06 15:43 43.62561 7.72400 6542 ft 289 kts 143°
2026-05-06 15:43 43.60933 7.73791 6133 ft 274 kts 163°
2026-05-06 15:44 43.59120 7.74351 5809 ft 262 kts 182°
2026-05-06 15:44 43.57363 7.74110 5556 ft 248 kts 199°
2026-05-06 15:44 43.55814 7.73210 5300 ft 237 kts 216°
2026-05-06 15:44 43.54571 7.71795 5058 ft 230 kts 231°
2026-05-06 15:45 43.53679 7.69993 4863 ft 227 kts 245°
2026-05-06 15:45 43.53177 7.67945 4661 ft 226 kts 260°
2026-05-06 15:45 43.53099 7.65795 4456 ft 225 kts 274°
2026-05-06 15:45 43.53444 7.63695 4248 ft 226 kts 288°
2026-05-06 15:46 43.54076 7.61707 4066 ft 227 kts 291°
2026-05-06 15:46 43.54712 7.59719 3888 ft 226 kts 291°
2026-05-06 15:46 43.55341 7.57736 3714 ft 225 kts 290°
2026-05-06 15:46 43.55970 7.55753 3537 ft 225 kts 290°
2026-05-06 15:47 43.56593 7.53781 3364 ft 224 kts 291°
2026-05-06 15:47 43.57208 7.51825 3188 ft 218 kts 290°
2026-05-06 15:47 43.57801 7.49939 3027 ft 209 kts 290°
2026-05-06 15:47 43.58499 7.48235 2924 ft 201 kts 301°
2026-05-06 15:48 43.59297 7.46687 2829 ft 196 kts 301°
2026-05-06 15:48 43.60082 7.45151 2729 ft 196 kts 301°
2026-05-06 15:48 43.60865 7.43617 2624 ft 196 kts 301°
2026-05-06 15:48 43.61647 7.42081 2522 ft 195 kts 301°
2026-05-06 15:49 43.62415 7.40575 2439 ft 185 kts 300°
2026-05-06 15:49 43.63139 7.39161 2347 ft 178 kts 300°
2026-05-06 15:49 43.63831 7.37806 2241 ft 169 kts 300°
2026-05-06 15:49 43.64499 7.36493 2142 ft 165 kts 299°
2026-05-06 15:50 43.65138 7.35235 2079 ft 158 kts 299°
2026-05-06 15:50 43.65757 7.34020 2015 ft 145 kts 299°
2026-05-06 15:50 43.66304 7.32954 1945 ft 134 kts 298°
2026-05-06 15:50 43.66833 7.31915 1729 ft 129 kts 297°
2026-05-06 15:51 43.67345 7.30905 1533 ft 129 kts 296°
2026-05-06 15:51 43.67863 7.29882 1350 ft 132 kts 296°
2026-05-06 15:51 43.68392 7.28836 1157 ft 134 kts 296°
2026-05-06 15:51 43.68817 7.27731 970 ft 130 kts 278°
2026-05-06 15:52 43.68899 7.26527 788 ft 124 kts 258°
2026-05-06 15:52 43.68664 7.25409 618 ft 120 kts 239°
2026-05-06 15:52 43.68161 7.24490 435 ft 120 kts 224°
2026-05-06 15:52 43.67566 7.23690 297 ft 120 kts 224°
2026-05-06 15:53 43.66982 7.22872 122 ft 118 kts 222°
2026-05-06 15:53 43.66411 7.22101 25 ft 104 kts 224°
2026-05-06 15:53 43.66022 7.21559 20 ft 54 kts 225°
2026-05-06 15:53 43.65852 7.21325 21 ft 25 kts 225°
2026-05-06 15:54 43.65738 7.21170 22 ft 21 kts 223°
2026-05-06 15:54 43.65649 7.21046 23 ft 12 kts 225°
2026-05-06 15:54 43.65628 7.20954 22 ft 12 kts 286°
2026-05-06 15:54 43.65675 7.20863 21 ft 10 kts 307°
2026-05-06 15:55 43.65677 7.20774 21 ft 10 kts 250°
2026-05-06 15:55 43.65630 7.20691 21 ft 11 kts 248°
2026-05-06 15:55 43.65664 7.20611 21 ft 9 kts 314°
2026-05-06 15:55 43.65681 7.20539 21 ft 8 kts 260°
2026-05-06 15:56 43.65708 7.20467 21 ft 9 kts 314°
2026-05-06 15:56 43.65737 7.20427 21 ft 2 kts 315°
2026-05-06 15:56 43.65741 7.20421 21 ft 0 kts 315°